Year,Month,Day,Hour,Minute,Value (Times are PST for temperature in C)
2019,03,18,00,00,10.00
2019,03,18,00,01,9.90
2019,03,18,00,02,9.90
2019,03,18,00,03,9.90
2019,03,18,00,04,9.90
2019,03,18,00,05,9.90
2019,03,18,00,06,9.90
2019,03,18,00,07,9.90
2019,03,18,00,08,9.80
2019,03,18,00,09,9.80
2019,03,18,00,10,9.80
2019,03,18,00,11,9.80
2019,03,18,00,12,9.80
2019,03,18,00,13,9.80
2019,03,18,00,14,9.80
2019,03,18,00,15,9.70
2019,03,18,00,16,9.70
2019,03,18,00,17,9.70
2019,03,18,00,18,9.80
2019,03,18,00,19,9.80
2019,03,18,00,20,9.80
2019,03,18,00,21,9.90
2019,03,18,00,22,9.90
2019,03,18,00,23,9.90
2019,03,18,00,24,10.00
2019,03,18,00,25,10.00
2019,03,18,00,26,10.00
2019,03,18,00,27,10.10
2019,03,18,00,28,10.10
2019,03,18,00,29,10.10
2019,03,18,00,30,10.10
2019,03,18,00,31,10.10
2019,03,18,00,32,10.10
2019,03,18,00,33,10.10
2019,03,18,00,34,10.10
2019,03,18,00,35,10.20
2019,03,18,00,36,10.10
2019,03,18,00,37,10.10
2019,03,18,00,38,10.10
2019,03,18,00,39,10.10
2019,03,18,00,40,10.10
2019,03,18,00,41,10.10
2019,03,18,00,42,10.10
2019,03,18,00,43,10.10
2019,03,18,00,44,10.10
2019,03,18,00,45,10.10
2019,03,18,00,46,10.10
2019,03,18,00,47,10.10
2019,03,18,00,48,10.10
2019,03,18,00,49,10.10
2019,03,18,00,50,10.10
2019,03,18,00,51,10.20
2019,03,18,00,52,10.20
2019,03,18,00,53,10.20
2019,03,18,00,54,10.20
2019,03,18,00,55,10.20
2019,03,18,00,56,10.20
2019,03,18,00,57,10.20
2019,03,18,00,58,10.20
2019,03,18,00,59,10.20
2019,03,18,01,00,10.20
2019,03,18,01,01,10.20
2019,03,18,01,02,10.20
2019,03,18,01,03,10.20
2019,03,18,01,04,10.20
2019,03,18,01,05,10.20
2019,03,18,01,06,10.30
2019,03,18,01,07,10.30
2019,03,18,01,08,10.30
2019,03,18,01,09,10.30
2019,03,18,01,10,10.30
2019,03,18,01,11,10.30
2019,03,18,01,12,10.30
2019,03,18,01,13,10.20
2019,03,18,01,14,10.20
2019,03,18,01,15,10.20
2019,03,18,01,16,10.20
2019,03,18,01,17,10.10
2019,03,18,01,18,10.10
2019,03,18,01,19,10.10
2019,03,18,01,20,10.10
2019,03,18,01,21,10.10
2019,03,18,01,22,10.20
2019,03,18,01,23,10.20
2019,03,18,01,24,10.20
2019,03,18,01,25,10.20
2019,03,18,01,26,10.20
2019,03,18,01,27,10.20
2019,03,18,01,28,10.20
2019,03,18,01,29,10.20
2019,03,18,01,30,10.20
2019,03,18,01,31,10.20
2019,03,18,01,32,10.20
2019,03,18,01,33,10.20
2019,03,18,01,34,10.10
2019,03,18,01,35,10.10
2019,03,18,01,36,10.10
2019,03,18,01,37,10.10
2019,03,18,01,38,10.10
2019,03,18,01,39,10.10
2019,03,18,01,40,10.10
2019,03,18,01,41,10.10
2019,03,18,01,42,10.00
2019,03,18,01,43,10.00
2019,03,18,01,44,10.00
2019,03,18,01,45,10.00
2019,03,18,01,46,10.00
2019,03,18,01,47,10.00
2019,03,18,01,48,9.90
2019,03,18,01,49,9.90
2019,03,18,01,50,9.90
2019,03,18,01,51,9.90
2019,03,18,01,52,9.90
2019,03,18,01,53,9.90
2019,03,18,01,54,9.90
2019,03,18,01,55,9.90
2019,03,18,01,56,9.90
2019,03,18,01,57,9.90
2019,03,18,01,58,9.90
2019,03,18,01,59,9.90
2019,03,18,02,00,10.00
2019,03,18,02,01,10.00
2019,03,18,02,02,10.00
2019,03,18,02,03,10.10
2019,03,18,02,04,10.10
2019,03,18,02,05,10.10
2019,03,18,02,06,10.10
2019,03,18,02,07,10.10
2019,03,18,02,08,10.10
2019,03,18,02,09,10.20
2019,03,18,02,10,10.20
2019,03,18,02,11,10.30
2019,03,18,02,12,10.30
2019,03,18,02,13,10.40
2019,03,18,02,14,10.40
2019,03,18,02,15,10.40
2019,03,18,02,16,10.40
2019,03,18,02,17,10.40
2019,03,18,02,18,10.40
2019,03,18,02,19,10.40
2019,03,18,02,20,10.40
2019,03,18,02,21,10.50
2019,03,18,02,22,10.60
2019,03,18,02,23,10.70
2019,03,18,02,24,10.70
2019,03,18,02,25,10.70
2019,03,18,02,26,10.70
2019,03,18,02,27,10.80
2019,03,18,02,28,10.80
2019,03,18,02,29,10.80
2019,03,18,02,30,10.80
2019,03,18,02,31,10.80
2019,03,18,02,32,10.70
2019,03,18,02,33,10.70
2019,03,18,02,34,10.60
2019,03,18,02,35,10.40
2019,03,18,02,36,10.30
2019,03,18,02,37,10.10
2019,03,18,02,38,9.80
2019,03,18,02,39,9.60
2019,03,18,02,40,9.40
2019,03,18,02,41,9.30
2019,03,18,02,42,9.30
2019,03,18,02,43,9.20
2019,03,18,02,44,9.20
2019,03,18,02,45,9.20
2019,03,18,02,46,9.10
2019,03,18,02,47,9.10
2019,03,18,02,48,9.10
2019,03,18,02,49,9.00
2019,03,18,02,50,9.00
2019,03,18,02,51,8.90
2019,03,18,02,52,8.80
2019,03,18,02,53,8.90
2019,03,18,02,54,8.90
2019,03,18,02,55,8.90
2019,03,18,02,56,8.90
2019,03,18,02,57,8.90
2019,03,18,02,58,8.90
2019,03,18,02,59,8.90
2019,03,18,03,00,8.90
2019,03,18,03,01,8.90
2019,03,18,03,02,8.90
2019,03,18,03,03,8.90
2019,03,18,03,04,8.90
2019,03,18,03,05,8.90
2019,03,18,03,06,8.90
2019,03,18,03,07,8.90
2019,03,18,03,08,8.90
2019,03,18,03,09,9.00
2019,03,18,03,10,9.00
2019,03,18,03,11,9.00
2019,03,18,03,12,9.00
2019,03,18,03,13,9.00
2019,03,18,03,14,9.00
2019,03,18,03,15,9.00
2019,03,18,03,16,9.00
2019,03,18,03,17,9.00
2019,03,18,03,18,9.00
2019,03,18,03,19,9.10
2019,03,18,03,20,9.10
2019,03,18,03,21,9.10
2019,03,18,03,22,9.10
2019,03,18,03,23,9.20
2019,03,18,03,24,9.20
2019,03,18,03,25,9.20
2019,03,18,03,26,9.20
2019,03,18,03,27,9.20
2019,03,18,03,28,9.20
2019,03,18,03,29,9.20
2019,03,18,03,30,9.20
2019,03,18,03,31,9.20
2019,03,18,03,32,9.20
2019,03,18,03,33,9.20
2019,03,18,03,34,9.20
2019,03,18,03,35,9.20
2019,03,18,03,36,9.20
2019,03,18,03,37,9.20
2019,03,18,03,38,9.10
2019,03,18,03,39,9.10
2019,03,18,03,40,9.10
2019,03,18,03,41,9.10
2019,03,18,03,42,9.10
2019,03,18,03,43,9.10
2019,03,18,03,44,9.00
2019,03,18,03,45,9.00
2019,03,18,03,46,8.90
2019,03,18,03,47,8.90
2019,03,18,03,48,8.80
2019,03,18,03,49,8.70
2019,03,18,03,50,8.60
2019,03,18,03,51,8.50
2019,03,18,03,52,8.40
2019,03,18,03,53,8.40
2019,03,18,03,54,8.40
2019,03,18,03,55,8.40
2019,03,18,03,56,8.40
2019,03,18,03,57,8.40
2019,03,18,03,58,8.50
2019,03,18,03,59,8.50
2019,03,18,04,00,8.50
2019,03,18,04,01,8.50
2019,03,18,04,02,8.60
2019,03,18,04,03,8.60
2019,03,18,04,04,8.70
2019,03,18,04,05,8.80
2019,03,18,04,06,8.80
2019,03,18,04,07,8.90
2019,03,18,04,08,8.90
2019,03,18,04,09,8.90
2019,03,18,04,10,8.90
2019,03,18,04,11,8.90
2019,03,18,04,12,8.90
2019,03,18,04,13,8.90
2019,03,18,04,14,8.90
2019,03,18,04,15,8.90
2019,03,18,04,16,8.90
2019,03,18,04,17,8.90
2019,03,18,04,18,9.00
2019,03,18,04,19,9.00
2019,03,18,04,20,9.00
2019,03,18,04,21,9.10
2019,03,18,04,22,9.10
2019,03,18,04,23,9.10
2019,03,18,04,24,9.10
2019,03,18,04,25,9.20
2019,03,18,04,26,9.20
2019,03,18,04,27,9.20
2019,03,18,04,28,9.20
2019,03,18,04,29,9.20
2019,03,18,04,30,9.20
2019,03,18,04,31,9.20
2019,03,18,04,32,9.20
2019,03,18,04,33,9.20
2019,03,18,04,34,9.10
2019,03,18,04,35,9.10
2019,03,18,04,36,9.10
2019,03,18,04,37,9.10
2019,03,18,04,38,9.00
2019,03,18,04,39,9.00
2019,03,18,04,40,9.00
2019,03,18,04,41,9.00
2019,03,18,04,42,9.00
2019,03,18,04,43,9.00
2019,03,18,04,44,9.00
2019,03,18,04,45,9.00
2019,03,18,04,46,9.10
2019,03,18,04,47,9.10
2019,03,18,04,48,9.10
2019,03,18,04,49,9.20
2019,03,18,04,50,9.20
2019,03,18,04,51,9.20
2019,03,18,04,52,9.30
2019,03,18,04,53,9.30
2019,03,18,04,54,9.30
2019,03,18,04,55,9.30
2019,03,18,04,56,9.30
2019,03,18,04,57,9.30
2019,03,18,04,58,9.30
2019,03,18,04,59,9.30
2019,03,18,05,00,9.30
2019,03,18,05,01,9.30
2019,03,18,05,02,9.40
2019,03,18,05,03,9.40
2019,03,18,05,04,9.40
2019,03,18,05,05,9.40
2019,03,18,05,06,9.40
2019,03,18,05,07,9.30
2019,03,18,05,08,9.30
2019,03,18,05,09,9.30
2019,03,18,05,10,9.30
2019,03,18,05,11,9.30
2019,03,18,05,12,9.20
2019,03,18,05,13,9.20
2019,03,18,05,14,9.20
2019,03,18,05,15,9.20
2019,03,18,05,16,9.20
2019,03,18,05,17,9.20
2019,03,18,05,18,9.20
2019,03,18,05,19,9.10
2019,03,18,05,20,9.10
2019,03,18,05,21,9.10
2019,03,18,05,22,9.10
2019,03,18,05,23,9.10
2019,03,18,05,24,9.10
2019,03,18,05,25,9.10
2019,03,18,05,26,9.00
2019,03,18,05,27,9.00
2019,03,18,05,28,8.90
2019,03,18,05,29,8.80
2019,03,18,05,30,8.70
2019,03,18,05,31,8.60
2019,03,18,05,32,8.50
2019,03,18,05,33,8.50
2019,03,18,05,34,8.40
2019,03,18,05,35,8.40
2019,03,18,05,36,8.40
2019,03,18,05,37,8.50
2019,03,18,05,38,8.60
2019,03,18,05,39,8.60
2019,03,18,05,40,8.70
2019,03,18,05,41,8.80
2019,03,18,05,42,9.00
2019,03,18,05,43,9.10
2019,03,18,05,44,9.20
2019,03,18,05,45,9.20
2019,03,18,05,46,9.30
2019,03,18,05,47,9.30
2019,03,18,05,48,9.40
2019,03,18,05,49,9.40
2019,03,18,05,50,9.40
2019,03,18,05,51,9.40
2019,03,18,05,52,9.40
2019,03,18,05,53,9.40
2019,03,18,05,54,9.40
2019,03,18,05,55,9.40
2019,03,18,05,56,9.40
2019,03,18,05,57,9.40
2019,03,18,05,58,9.30
2019,03,18,05,59,9.30
2019,03,18,06,00,9.30
2019,03,18,06,01,9.30
2019,03,18,06,02,9.30
2019,03,18,06,03,9.30
2019,03,18,06,04,9.30
2019,03,18,06,05,9.30
2019,03,18,06,06,9.30
2019,03,18,06,07,9.30
2019,03,18,06,08,9.30
2019,03,18,06,09,9.30
2019,03,18,06,10,9.30
2019,03,18,06,11,9.30
2019,03,18,06,12,9.30
2019,03,18,06,13,9.30
2019,03,18,06,14,9.30
2019,03,18,06,15,9.30
2019,03,18,06,16,9.30
2019,03,18,06,17,9.30
2019,03,18,06,18,9.30
2019,03,18,06,19,9.30
2019,03,18,06,20,9.30
2019,03,18,06,21,9.30
2019,03,18,06,22,9.30
2019,03,18,06,23,9.30
2019,03,18,06,24,9.20
2019,03,18,06,25,9.20
2019,03,18,06,26,9.20
2019,03,18,06,27,9.10
2019,03,18,06,28,9.10
2019,03,18,06,29,9.10
2019,03,18,06,30,9.00
2019,03,18,06,31,9.00
2019,03,18,06,32,8.90
2019,03,18,06,33,8.90
2019,03,18,06,34,8.90
2019,03,18,06,35,8.90
2019,03,18,06,36,8.80
2019,03,18,06,37,8.80
2019,03,18,06,38,8.80
2019,03,18,06,39,8.80
2019,03,18,06,40,8.70
2019,03,18,06,41,8.70
2019,03,18,06,42,8.60
2019,03,18,06,43,8.60
2019,03,18,06,44,8.60
2019,03,18,06,45,8.50
2019,03,18,06,46,8.50
2019,03,18,06,47,8.50
2019,03,18,06,48,8.50
2019,03,18,06,49,8.40
2019,03,18,06,50,8.40
2019,03,18,06,51,8.40
2019,03,18,06,52,8.40
2019,03,18,06,53,8.30
2019,03,18,06,54,8.30
2019,03,18,06,55,8.20
2019,03,18,06,56,8.10
2019,03,18,06,57,8.10
2019,03,18,06,58,8.00
2019,03,18,06,59,8.00
2019,03,18,07,00,7.90
2019,03,18,07,01,7.80
2019,03,18,07,02,7.80
2019,03,18,07,03,7.70
2019,03,18,07,04,7.70
2019,03,18,07,05,7.60
2019,03,18,07,06,7.60
2019,03,18,07,07,7.50
2019,03,18,07,08,7.50
2019,03,18,07,09,7.40
2019,03,18,07,10,7.30
2019,03,18,07,11,7.30
2019,03,18,07,12,7.30
2019,03,18,07,13,7.30
2019,03,18,07,14,7.30
2019,03,18,07,15,7.30
2019,03,18,07,16,7.30
2019,03,18,07,17,7.30
2019,03,18,07,18,7.40
2019,03,18,07,19,7.50
2019,03,18,07,20,7.50
2019,03,18,07,21,7.60
2019,03,18,07,22,7.70
2019,03,18,07,23,7.70
2019,03,18,07,24,7.80
2019,03,18,07,25,7.80
2019,03,18,07,26,7.80
2019,03,18,07,27,7.80
2019,03,18,07,28,7.80
2019,03,18,07,29,7.80
2019,03,18,07,30,7.90
2019,03,18,07,31,7.90
2019,03,18,07,32,7.90
2019,03,18,07,33,7.80
2019,03,18,07,34,7.80
2019,03,18,07,35,7.80
2019,03,18,07,36,7.80
2019,03,18,07,37,7.80
2019,03,18,07,38,7.80
2019,03,18,07,39,7.80
2019,03,18,07,40,7.70
2019,03,18,07,41,7.70
2019,03,18,07,42,7.60
2019,03,18,07,43,7.60
2019,03,18,07,44,7.50
2019,03,18,07,45,7.40
2019,03,18,07,46,7.40
2019,03,18,07,47,7.30
2019,03,18,07,48,7.30
2019,03,18,07,49,7.20
2019,03,18,07,50,7.20
2019,03,18,07,51,7.20
2019,03,18,07,52,7.10
2019,03,18,07,53,7.10
2019,03,18,07,54,7.10
2019,03,18,07,55,7.10
2019,03,18,07,56,7.10
2019,03,18,07,57,7.10
2019,03,18,07,58,7.10
2019,03,18,07,59,7.10
2019,03,18,08,00,7.10
2019,03,18,08,01,7.10
2019,03,18,08,02,7.10
2019,03,18,08,03,7.20
2019,03,18,08,04,7.20
2019,03,18,08,05,7.20
2019,03,18,08,06,7.20
2019,03,18,08,07,7.30
2019,03,18,08,08,7.30
2019,03,18,08,09,7.30
2019,03,18,08,10,7.40
2019,03,18,08,11,7.40
2019,03,18,08,12,7.50
2019,03,18,08,13,7.50
2019,03,18,08,14,7.60
2019,03,18,08,15,7.80
2019,03,18,08,16,7.90
2019,03,18,08,17,8.00
2019,03,18,08,18,8.10
2019,03,18,08,19,8.20
2019,03,18,08,20,8.20
2019,03,18,08,21,8.30
2019,03,18,08,22,8.30
2019,03,18,08,23,8.30
2019,03,18,08,24,8.40
2019,03,18,08,25,8.40
2019,03,18,08,26,8.40
2019,03,18,08,27,8.50
2019,03,18,08,28,8.40
2019,03,18,08,29,8.40
2019,03,18,08,30,8.40
2019,03,18,08,31,8.40
2019,03,18,08,32,8.40
2019,03,18,08,33,8.40
2019,03,18,08,34,8.40
2019,03,18,08,35,8.40
2019,03,18,08,36,8.30
2019,03,18,08,37,8.40
2019,03,18,08,38,8.40
2019,03,18,08,39,8.40
2019,03,18,08,40,8.40
2019,03,18,08,41,8.50
2019,03,18,08,42,8.50
2019,03,18,08,43,8.60
2019,03,18,08,44,8.60
2019,03,18,08,45,8.70
2019,03,18,08,46,8.70
2019,03,18,08,47,8.70
2019,03,18,08,48,8.80
2019,03,18,08,49,8.80
2019,03,18,08,50,8.90
2019,03,18,08,51,9.00
2019,03,18,08,52,9.00
2019,03,18,08,53,9.10
2019,03,18,08,54,9.20
2019,03,18,08,55,9.30
2019,03,18,08,56,9.50
2019,03,18,08,57,9.60
2019,03,18,08,58,9.60
2019,03,18,08,59,9.70
2019,03,18,09,00,9.70
2019,03,18,09,01,9.80
2019,03,18,09,02,9.90
2019,03,18,09,03,10.00
2019,03,18,09,04,10.00
2019,03,18,09,05,10.10
2019,03,18,09,06,10.20
2019,03,18,09,07,10.20
2019,03,18,09,08,10.20
2019,03,18,09,09,10.20
2019,03,18,09,10,10.20
2019,03,18,09,11,10.20
2019,03,18,09,12,10.30
2019,03,18,09,13,10.30
2019,03,18,09,14,10.40
2019,03,18,09,15,10.50
2019,03,18,09,16,10.60
2019,03,18,09,17,10.70
2019,03,18,09,18,10.70
2019,03,18,09,19,10.80
2019,03,18,09,20,10.90
2019,03,18,09,21,10.90
2019,03,18,09,22,10.90
2019,03,18,09,23,11.00
2019,03,18,09,24,11.00
2019,03,18,09,25,11.10
2019,03,18,09,26,11.20
2019,03,18,09,27,11.30
2019,03,18,09,28,11.30
2019,03,18,09,29,11.40
2019,03,18,09,30,11.50
2019,03,18,09,31,11.50
2019,03,18,09,32,11.60
2019,03,18,09,33,11.60
2019,03,18,09,34,11.60
2019,03,18,09,35,11.60
2019,03,18,09,36,11.60
2019,03,18,09,37,11.60
2019,03,18,09,38,11.50
2019,03,18,09,39,11.50
2019,03,18,09,40,11.40
2019,03,18,09,41,11.40
2019,03,18,09,42,11.40
2019,03,18,09,43,11.30
2019,03,18,09,44,11.30
2019,03,18,09,45,11.30
2019,03,18,09,46,11.20
2019,03,18,09,47,11.10
2019,03,18,09,48,11.10
2019,03,18,09,49,11.00
2019,03,18,09,50,11.00
2019,03,18,09,51,11.00
2019,03,18,09,52,11.00
2019,03,18,09,53,11.10
2019,03,18,09,54,11.20
2019,03,18,09,55,11.30
2019,03,18,09,56,11.40
2019,03,18,09,57,11.50
2019,03,18,09,58,11.60
2019,03,18,09,59,11.70
2019,03,18,10,00,11.80
2019,03,18,10,01,11.90
2019,03,18,10,02,12.00
2019,03,18,10,03,12.20
2019,03,18,10,04,12.30
2019,03,18,10,05,12.30
2019,03,18,10,06,12.40
2019,03,18,10,07,12.50
2019,03,18,10,08,12.50
2019,03,18,10,09,12.50
2019,03,18,10,10,12.40
2019,03,18,10,11,12.30
2019,03,18,10,12,12.30
2019,03,18,10,13,12.30
2019,03,18,10,14,12.30
2019,03,18,10,15,12.30
2019,03,18,10,16,12.20
2019,03,18,10,17,12.20
2019,03,18,10,18,12.20
2019,03,18,10,19,12.20
2019,03,18,10,20,12.10
2019,03,18,10,21,12.00
2019,03,18,10,22,11.90
2019,03,18,10,23,11.90
2019,03,18,10,24,11.90
2019,03,18,10,25,11.90
2019,03,18,10,26,12.00
2019,03,18,10,27,12.00
2019,03,18,10,28,12.00
2019,03,18,10,29,11.90
2019,03,18,10,30,11.80
2019,03,18,10,31,11.80
2019,03,18,10,32,11.80
2019,03,18,10,33,11.90
2019,03,18,10,34,11.90
2019,03,18,10,35,12.00
2019,03,18,10,36,12.10
2019,03,18,10,37,12.20
2019,03,18,10,38,12.20
2019,03,18,10,39,12.20
2019,03,18,10,40,12.20
2019,03,18,10,41,12.20
2019,03,18,10,42,12.20
2019,03,18,10,43,12.30
2019,03,18,10,44,12.30
2019,03,18,10,45,12.30
2019,03,18,10,46,12.30
2019,03,18,10,47,12.30
2019,03,18,10,48,12.30
2019,03,18,10,49,12.30
2019,03,18,10,50,12.30
2019,03,18,10,51,12.40
2019,03,18,10,52,12.40
2019,03,18,10,53,12.50
2019,03,18,10,54,12.50
2019,03,18,10,55,12.60
2019,03,18,10,56,12.60
2019,03,18,10,57,12.60
2019,03,18,10,58,12.50
2019,03,18,10,59,12.50
2019,03,18,11,00,12.40
2019,03,18,11,01,12.40
2019,03,18,11,02,12.40
2019,03,18,11,03,12.40
2019,03,18,11,04,12.40
2019,03,18,11,05,12.50
2019,03,18,11,06,12.50
2019,03,18,11,07,12.50
2019,03,18,11,08,12.60
2019,03,18,11,09,12.60
2019,03,18,11,10,12.60
2019,03,18,11,11,12.60
2019,03,18,11,12,12.60
2019,03,18,11,13,12.70
2019,03,18,11,14,12.70
2019,03,18,11,15,12.80
2019,03,18,11,16,12.80
2019,03,18,11,17,12.90
2019,03,18,11,18,12.90
2019,03,18,11,19,12.90
2019,03,18,11,20,12.90
2019,03,18,11,21,12.80
2019,03,18,11,22,12.80
2019,03,18,11,23,12.80
2019,03,18,11,24,12.70
2019,03,18,11,25,12.70
2019,03,18,11,26,12.70
2019,03,18,11,27,12.70
2019,03,18,11,28,12.60
2019,03,18,11,29,12.60
2019,03,18,11,30,12.70
2019,03,18,11,31,12.70
2019,03,18,11,32,12.70
2019,03,18,11,33,12.80
2019,03,18,11,34,12.80
2019,03,18,11,35,12.80
2019,03,18,11,36,12.80
2019,03,18,11,37,12.80
2019,03,18,11,38,12.80
2019,03,18,11,39,12.80
2019,03,18,11,40,12.80
2019,03,18,11,41,12.80
2019,03,18,11,42,12.80
2019,03,18,11,43,12.80
2019,03,18,11,44,12.70
2019,03,18,11,45,12.70
2019,03,18,11,46,12.80
2019,03,18,11,47,12.80
2019,03,18,11,48,12.90
2019,03,18,11,49,12.90
2019,03,18,11,50,12.90
2019,03,18,11,51,12.90
2019,03,18,11,52,13.00
2019,03,18,11,53,13.00
2019,03,18,11,54,13.10
2019,03,18,11,55,13.20
2019,03,18,11,56,13.30
2019,03,18,11,57,13.30
2019,03,18,11,58,13.30
2019,03,18,11,59,13.30
2019,03,18,12,00,13.30
2019,03,18,12,01,13.40
2019,03,18,12,02,13.40
2019,03,18,12,03,13.40
2019,03,18,12,04,13.40
2019,03,18,12,05,13.50
2019,03,18,12,06,13.50
2019,03,18,12,07,13.50
2019,03,18,12,08,13.60
2019,03,18,12,09,13.60
2019,03,18,12,10,13.60
2019,03,18,12,11,13.60
2019,03,18,12,12,13.70
2019,03,18,12,13,13.70
2019,03,18,12,14,13.70
2019,03,18,12,15,13.60
2019,03,18,12,16,13.60
2019,03,18,12,17,13.60
2019,03,18,12,18,13.60
2019,03,18,12,19,13.60
2019,03,18,12,20,13.60
2019,03,18,12,21,13.60
2019,03,18,12,22,13.60
2019,03,18,12,23,13.70
2019,03,18,12,24,13.70
2019,03,18,12,25,13.80
2019,03,18,12,26,13.90
2019,03,18,12,27,14.00
2019,03,18,12,28,14.00
2019,03,18,12,29,14.00
2019,03,18,12,30,13.90
2019,03,18,12,31,13.90
2019,03,18,12,32,13.90
2019,03,18,12,33,13.90
2019,03,18,12,34,14.00
2019,03,18,12,35,14.00
2019,03,18,12,36,14.00
2019,03,18,12,37,13.90
2019,03,18,12,38,13.80
2019,03,18,12,39,13.80
2019,03,18,12,40,13.70
2019,03,18,12,41,13.70
2019,03,18,12,42,13.70
2019,03,18,12,43,13.80
2019,03,18,12,44,13.80
2019,03,18,12,45,13.90
2019,03,18,12,46,13.90
2019,03,18,12,47,13.90
2019,03,18,12,48,14.00
2019,03,18,12,49,14.10
2019,03,18,12,50,14.10
2019,03,18,12,51,14.20
2019,03,18,12,52,14.20
2019,03,18,12,53,14.20
2019,03,18,12,54,14.20
2019,03,18,12,55,14.30
2019,03,18,12,56,14.30
2019,03,18,12,57,14.30
2019,03,18,12,58,14.30
2019,03,18,12,59,14.30
2019,03,18,13,00,14.40
2019,03,18,13,01,14.40
2019,03,18,13,02,14.50
2019,03,18,13,03,14.50
2019,03,18,13,04,14.50
2019,03,18,13,05,14.50
2019,03,18,13,06,14.50
2019,03,18,13,07,14.50
2019,03,18,13,08,14.50
2019,03,18,13,09,14.50
2019,03,18,13,10,14.60
2019,03,18,13,11,14.70
2019,03,18,13,12,14.70
2019,03,18,13,13,14.70
2019,03,18,13,14,14.70
2019,03,18,13,15,14.60
2019,03,18,13,16,14.60
2019,03,18,13,17,14.60
2019,03,18,13,18,14.70
2019,03,18,13,19,14.70
2019,03,18,13,20,14.70
2019,03,18,13,21,14.70
2019,03,18,13,22,14.80
2019,03,18,13,23,14.80
2019,03,18,13,24,14.80
2019,03,18,13,25,14.80
2019,03,18,13,26,14.80
2019,03,18,13,27,14.70
2019,03,18,13,28,14.70
2019,03,18,13,29,14.70
2019,03,18,13,30,14.70
2019,03,18,13,31,14.70
2019,03,18,13,32,14.70
2019,03,18,13,33,14.70
2019,03,18,13,34,14.80
2019,03,18,13,35,14.90
2019,03,18,13,36,15.00
2019,03,18,13,37,15.00
2019,03,18,13,38,15.00
2019,03,18,13,39,15.00
2019,03,18,13,40,15.00
2019,03,18,13,41,15.00
2019,03,18,13,42,15.00
2019,03,18,13,43,15.00
2019,03,18,13,44,15.00
2019,03,18,13,45,15.10
2019,03,18,13,46,15.20
2019,03,18,13,47,15.30
2019,03,18,13,48,15.20
2019,03,18,13,49,15.20
2019,03,18,13,50,15.20
2019,03,18,13,51,15.10
2019,03,18,13,52,15.10
2019,03,18,13,53,15.20
2019,03,18,13,54,15.30
2019,03,18,13,55,15.40
2019,03,18,13,56,15.50
2019,03,18,13,57,15.50
2019,03,18,13,58,15.60
2019,03,18,13,59,15.60
2019,03,18,14,00,15.60
2019,03,18,14,01,15.70
2019,03,18,14,02,15.70
2019,03,18,14,03,15.80
2019,03,18,14,04,15.80
2019,03,18,14,05,15.80
2019,03,18,14,06,15.90
2019,03,18,14,07,16.00
2019,03,18,14,08,16.00
2019,03,18,14,09,16.10
2019,03,18,14,10,16.10
2019,03,18,14,11,16.10
2019,03,18,14,12,16.10
2019,03,18,14,13,16.10
2019,03,18,14,14,16.10
2019,03,18,14,15,16.20
2019,03,18,14,16,16.20
2019,03,18,14,17,16.20
2019,03,18,14,18,16.10
2019,03,18,14,19,16.10
2019,03,18,14,20,16.20
2019,03,18,14,21,16.10
2019,03,18,14,22,16.10
2019,03,18,14,23,16.00
2019,03,18,14,24,15.90
2019,03,18,14,25,15.80
2019,03,18,14,26,15.80
2019,03,18,14,27,15.80
2019,03,18,14,28,15.80
2019,03,18,14,29,15.80
2019,03,18,14,30,15.80
2019,03,18,14,31,15.80
2019,03,18,14,32,15.80
2019,03,18,14,33,15.80
2019,03,18,14,34,15.80
2019,03,18,14,35,15.90
2019,03,18,14,36,15.90
2019,03,18,14,37,15.90
2019,03,18,14,38,15.90
2019,03,18,14,39,15.80
2019,03,18,14,40,15.80
2019,03,18,14,41,15.80
2019,03,18,14,42,15.90
2019,03,18,14,43,16.00
2019,03,18,14,44,16.10
2019,03,18,14,45,16.10
2019,03,18,14,46,16.20
2019,03,18,14,47,16.20
2019,03,18,14,48,16.20
2019,03,18,14,49,16.30
2019,03,18,14,50,16.30
2019,03,18,14,51,16.30
2019,03,18,14,52,16.30
2019,03,18,14,53,16.30
2019,03,18,14,54,16.30
2019,03,18,14,55,16.30
2019,03,18,14,56,16.30
2019,03,18,14,57,16.20
2019,03,18,14,58,16.20
2019,03,18,14,59,16.20
2019,03,18,15,00,16.10
2019,03,18,15,01,16.10
2019,03,18,15,02,16.10
2019,03,18,15,03,16.00
2019,03,18,15,04,16.00
2019,03,18,15,05,15.90
2019,03,18,15,06,15.90
2019,03,18,15,07,16.00
2019,03,18,15,08,15.90
2019,03,18,15,09,16.00
2019,03,18,15,10,16.10
2019,03,18,15,11,16.10
2019,03,18,15,12,16.20
2019,03,18,15,13,16.20
2019,03,18,15,14,16.30
2019,03,18,15,15,16.40
2019,03,18,15,16,16.40
2019,03,18,15,17,16.50
2019,03,18,15,18,16.50
2019,03,18,15,19,16.50
2019,03,18,15,20,16.50
2019,03,18,15,21,16.60
2019,03,18,15,22,16.70
2019,03,18,15,23,16.70
2019,03,18,15,24,16.70
2019,03,18,15,25,16.70
2019,03,18,15,26,16.60
2019,03,18,15,27,16.60
2019,03,18,15,28,16.50
2019,03,18,15,29,16.50
2019,03,18,15,30,16.50
2019,03,18,15,31,16.50
2019,03,18,15,32,16.50
2019,03,18,15,33,16.60
2019,03,18,15,34,16.60
2019,03,18,15,35,16.60
2019,03,18,15,36,16.60
2019,03,18,15,37,16.60
2019,03,18,15,38,16.70
2019,03,18,15,39,16.70
2019,03,18,15,40,16.70
2019,03,18,15,41,16.70
2019,03,18,15,42,16.60
2019,03,18,15,43,16.50
2019,03,18,15,44,16.40
2019,03,18,15,45,16.30
2019,03,18,15,46,16.30
2019,03,18,15,47,16.30
2019,03,18,15,48,16.30
2019,03,18,15,49,16.40
2019,03,18,15,50,16.50
2019,03,18,15,51,16.50
2019,03,18,15,52,16.60
2019,03,18,15,53,16.60
2019,03,18,15,54,16.50
2019,03,18,15,55,16.50
2019,03,18,15,56,16.50
2019,03,18,15,57,16.50
2019,03,18,15,58,16.60
2019,03,18,15,59,16.70
2019,03,18,16,00,16.80
2019,03,18,16,01,16.80
2019,03,18,16,02,16.90
2019,03,18,16,03,16.90
2019,03,18,16,04,17.00
2019,03,18,16,05,17.00
2019,03,18,16,06,16.90
2019,03,18,16,07,16.80
2019,03,18,16,08,16.80
2019,03,18,16,09,16.70
2019,03,18,16,10,16.70
2019,03,18,16,11,16.80
2019,03,18,16,12,16.80
2019,03,18,16,13,16.80
2019,03,18,16,14,16.80
2019,03,18,16,15,16.70
2019,03,18,16,16,16.70
2019,03,18,16,17,16.70
2019,03,18,16,18,16.70
2019,03,18,16,19,16.80
2019,03,18,16,20,16.90
2019,03,18,16,21,16.90
2019,03,18,16,22,16.90
2019,03,18,16,23,16.90
2019,03,18,16,24,16.80
2019,03,18,16,25,16.80
2019,03,18,16,26,16.80
2019,03,18,16,27,16.80
2019,03,18,16,28,16.80
2019,03,18,16,29,16.80
2019,03,18,16,30,16.80
2019,03,18,16,31,16.80
2019,03,18,16,32,16.70
2019,03,18,16,33,16.70
2019,03,18,16,34,16.70
2019,03,18,16,35,16.70
2019,03,18,16,36,16.70
2019,03,18,16,37,16.70
2019,03,18,16,38,16.70
2019,03,18,16,39,16.80
2019,03,18,16,40,16.80
2019,03,18,16,41,16.80
2019,03,18,16,42,16.90
2019,03,18,16,43,17.00
2019,03,18,16,44,16.90
2019,03,18,16,45,16.90
2019,03,18,16,46,16.90
2019,03,18,16,47,16.90
2019,03,18,16,48,16.80
2019,03,18,16,49,16.80
2019,03,18,16,50,16.80
2019,03,18,16,51,16.80
2019,03,18,16,52,16.80
2019,03,18,16,53,16.90
2019,03,18,16,54,16.90
2019,03,18,16,55,16.90
2019,03,18,16,56,16.90
2019,03,18,16,57,16.80
2019,03,18,16,58,16.80
2019,03,18,16,59,16.80
2019,03,18,17,00,16.80
2019,03,18,17,01,16.80
2019,03,18,17,02,16.90
2019,03,18,17,03,16.90
2019,03,18,17,04,17.00
2019,03,18,17,05,17.10
2019,03,18,17,06,17.10
2019,03,18,17,07,17.10
2019,03,18,17,08,17.10
2019,03,18,17,09,17.00
2019,03,18,17,10,17.00
2019,03,18,17,11,16.90
2019,03,18,17,12,16.80
2019,03,18,17,13,16.80
2019,03,18,17,14,16.80
2019,03,18,17,15,16.80
2019,03,18,17,16,16.70
2019,03,18,17,17,16.70
2019,03,18,17,18,16.70
2019,03,18,17,19,16.70
2019,03,18,17,20,16.70
2019,03,18,17,21,16.80
2019,03,18,17,22,16.80
2019,03,18,17,23,16.80
2019,03,18,17,24,16.80
2019,03,18,17,25,16.80
2019,03,18,17,26,16.80
2019,03,18,17,27,16.90
2019,03,18,17,28,16.90
2019,03,18,17,29,16.90
2019,03,18,17,30,17.00
2019,03,18,17,31,17.10
2019,03,18,17,32,17.20
2019,03,18,17,33,17.20
2019,03,18,17,34,17.20
2019,03,18,17,35,17.20
2019,03,18,17,36,17.20
2019,03,18,17,37,17.20